User: anonymous   Login
Location: Unspecified
(0.0000°N, 0.0000°E)
Time: 01:51:43
(UTC+00:00)
Language:

STARLINK-32305 - Orbit

View from above orbital plane
View from above orbital plane
View from above satellite
View from above satellite

Ground track
Ground track

The orbit is defined by the following mean orbital elements,

1 61523U          26145.38527904 +.00000000 +00000-0 +16129-4 0 00009
2 61523  53.1601 146.2847 0001196  85.2378 274.8759 15.30189630    05
Epoch (UTC): 25 May 2026 09:14:48
Eccentricity: 0.0001196
inclination: 53.1601°
perigee height: 474 km
apogee height: 476 km
right ascension of ascending node: 146.2847°
argument of perigee: 85.2378°
revolutions per day: 15.30189630
mean anomaly at epoch: 274.8759°

The dashed part of the orbit path shows where the satellite is in the earth's shadow,  

DLR